Martinsburg, WV

12:57 AM EDT on April 27, 2017 (GMT -0400)
Eastern W Va Regional-Shepherd

Weather History for KMRB - January, 2015

Change the Weather History Date:

Friday, January 30, 2015

  Actual Average Record
Temperature  
Mean Temperature 29 °F 31 °F  
Max Temperature 40 °F 40 °F 70 °F (1947)
Min Temperature 18 °F 23 °F -2 °F (2014)
Degree Days  
Heating Degree Days 36 34  
Month to date heating degree days 1030 1020  
Since 1 July heating degree days 2799 3046  
Cooling Degree Days 0 0  
Month to date cooling degree days 0 0  
Year to date cooling degree days 0 0  
Moisture  
Dew Point 17 °F    
Average Humidity 57    
Maximum Humidity 75    
Minimum Humidity 38    
Precipitation  
Precipitation 0.01 in 0.08 in 1.49 in (2013)
Month to date precipitation 2.06 2.35  
Year to date precipitation 2.06 2.35  
Sea Level Pressure  
Sea Level Pressure 30.10 in    
Wind  
Wind Speed 17 mph (WNW)    
Max Wind Speed 32 mph    
Max Gust Speed 46 mph    
Visibility 9 miles    
Events Snow    
T = Trace of Precipitation, MM = Missing Value Source: NWS Daily Summary

Daily Weather History Graph

Daily Weather History Graph

Search for Another Location

Airport or City:

Trip Planner

Search our weather history database for the weather conditions in past years. The results will help you decide how hot, cold, wet, or windy it might be!

Date:

Astronomy

Jan. 30, 2015 Rise Set
Actual Time 7:21 AM EST 5:29 PM EST
Civil Twilight 6:52 AM EST 5:58 PM EST
Nautical Twilight 6:20 AM EST 6:30 PM EST
Astronomical Twilight 5:48 AM EST 7:02 PM EST
Moon 2:03 PM EST (1/30) 3:48 AM EST (1/30)
Length of Visible Light 11h 05m
Length of Day
10h 08m
Waxing Gibbous, 84% of the Moon is Illuminated
Jan 30
Waxing Gibbous
Feb 3
Full
Feb 11
Last Quarter
Feb 18
New
Feb 25
First Quarter

Hourly Weather History & Observations

Time (EST) Temp. Windchill Dew Point Humidity Pressure Visibility Wind Dir Wind Speed Gust Speed Precip Events Conditions
12:18 AM 34.0 °F - 25.0 °F 70% 29.91 in 10.0 mi Calm Calm - N/A   Overcast
12:53 AM 34.0 °F - 26.1 °F 73% 29.93 in 10.0 mi Calm Calm - N/A   Overcast
1:53 AM 37.9 °F 30.5 °F 28.9 °F 70% 29.93 in 10.0 mi West 11.5 mph - N/A   Overcast
2:53 AM 39.9 °F 31.4 °F 28.0 °F 63% 29.94 in 10.0 mi WNW 16.1 mph 24.2 mph N/A   Overcast
3:53 AM 39.0 °F 31.8 °F 27.0 °F 62% 29.94 in 10.0 mi WNW 11.5 mph - N/A   Mostly Cloudy
4:53 AM 37.9 °F 29.6 °F 21.9 °F 53% 29.96 in 10.0 mi NW 13.8 mph 25.3 mph N/A   Partly Cloudy
5:53 AM 36.0 °F 28.5 °F 21.0 °F 55% 29.99 in 10.0 mi NW 10.4 mph - N/A   Mostly Cloudy
6:53 AM 36.0 °F 28.5 °F 21.9 °F 57% 30.00 in 10.0 mi WNW 10.4 mph - N/A   Overcast
7:53 AM 36.0 °F 31.1 °F 23.0 °F 59% 30.01 in 10.0 mi West 5.8 mph - N/A   Overcast
8:44 AM 36.0 °F 26.0 °F 24.1 °F 62% 30.02 in 2.5 mi WNW 17.3 mph 23.0 mph 0.00 in Snow Light Snow
8:53 AM 35.1 °F 25.5 °F 26.1 °F 70% 30.04 in 1.5 mi NW 15.0 mph - 0.00 in Snow Light Snow
9:03 AM 34.0 °F 25.5 °F 28.0 °F 79% 30.04 in 0.5 mi WNW 11.5 mph - 0.00 in Snow Snow
9:10 AM 34.0 °F 26.0 °F 28.0 °F 79% 30.04 in 1.0 mi NW 10.4 mph - 0.00 in Snow Light Snow
9:14 AM 34.0 °F 26.0 °F 27.0 °F 75% 30.04 in 4.0 mi NW 10.4 mph - 0.00 in Snow Light Snow
9:27 AM 35.1 °F 25.9 °F 24.1 °F 64% 30.03 in 9.0 mi NW 13.8 mph 23.0 mph 0.01 in   Overcast
9:53 AM 36.0 °F 25.0 °F 21.9 °F 57% 30.06 in 10.0 mi WNW 20.7 mph 29.9 mph 0.01 in   Overcast
10:53 AM 36.0 °F 25.0 °F 16.0 °F 44% 30.08 in 10.0 mi WNW 20.7 mph 33.4 mph N/A   Partly Cloudy
11:53 AM 36.0 °F 23.7 °F 12.9 °F 39% 30.08 in 10.0 mi WNW 26.5 mph 33.4 mph N/A   Clear
12:53 PM 35.1 °F 24.5 °F 15.1 °F 44% 30.09 in 10.0 mi NW 18.4 mph 31.1 mph N/A   Partly Cloudy
1:53 PM 33.1 °F 19.6 °F 12.9 °F 43% 30.11 in 10.0 mi NW 27.6 mph 40.3 mph N/A   Mostly Cloudy
2:53 PM 32.0 °F 18.4 °F 12.9 °F 45% 30.15 in 10.0 mi WNW 26.5 mph 33.4 mph N/A   Mostly Cloudy
3:53 PM 30.9 °F 17.5 °F 10.9 °F 43% 30.18 in 10.0 mi NW 24.2 mph 32.2 mph N/A   Scattered Clouds
4:53 PM 28.0 °F 14.3 °F 9.0 °F 45% 30.22 in 10.0 mi WNW 21.9 mph 35.7 mph N/A   Mostly Cloudy
5:53 PM 25.0 °F 10.9 °F 7.0 °F 46% 30.26 in 10.0 mi WNW 19.6 mph 32.2 mph N/A   Mostly Cloudy
6:53 PM 23.0 °F 10.6 °F 6.1 °F 48% 30.27 in 10.0 mi NW 13.8 mph 27.6 mph N/A   Overcast
7:53 PM 21.9 °F 6.2 °F 5.0 °F 48% 30.31 in 10.0 mi WNW 21.9 mph 39.1 mph N/A   Scattered Clouds
8:53 PM 21.0 °F 6.6 °F 5.0 °F 50% 30.32 in 10.0 mi NW 17.3 mph 31.1 mph N/A   Scattered Clouds
9:53 PM 19.9 °F 6.7 °F 3.0 °F 48% 30.31 in 10.0 mi WNW 13.8 mph 20.7 mph N/A   Partly Cloudy
10:53 PM 19.0 °F 4.5 °F 3.0 °F 50% 30.32 in 10.0 mi WNW 16.1 mph - N/A   Partly Cloudy
11:53 PM 19.0 °F 3.6 °F 3.0 °F 50% 30.32 in 10.0 mi NW 18.4 mph 28.8 mph N/A   Clear